Terminal Aerodrome Forecast
Issued by NWS

Current Version | Previous Version | Graphics & Text | Print | Product List | Glossary On
Versions: 1 2 3 4 5 6 7 8 9 10 11 12 13 14 15 16 17 18 19 20 21 22 23 24
000
FTUS41 KPBZ 231404 AAB
TAFMGW
TAF AMD
KMGW 231404Z 2314/2412 23007KT P6SM VCSH BKN015
      TEMPO 2314/2316 BKN002
     FM231800 23004KT P6SM BKN050
     FM240200 25005KT P6SM -SHRA VCTS BKN035CB
     FM240700 26004KT P6SM BKN015
     FM240900 28004KT 4SM BR BKN008=

USA.gov is the U.S. government's official web portal to all federal, state and local government web resources and services.